{"data":{"norad_id":60088,"intl_designator":"2024-116A","name":"CATCH-1","alt_names":[],"object_type":"PAYLOAD","status":"ACTIVE","operator":null,"country":"PRC","launch_date":"2024-06-22","launch_site_code":"XICLF","launch_vehicle":null,"mission":null,"orbit_class":"UNKNOWN","rcs_meters":null,"size_class":null,"mass_kg":null,"dimensions":null,"purposes":[],"wikipedia_slug":null,"has_3d_model":false,"image_url":null,"decayed_at":null,"tle_current":{"epoch":"2026-05-25T00:08:15.327744Z","epoch_age_seconds":67945,"freshness":"FRESH","line1":"1 60088U 24116A   26145.00573296  .00001511  00000+0  15920-3 0  9993","line2":"2 60088  28.9953 257.8596 0004019 184.8220 175.2336 14.84834555104213","mean_motion":14.84834555,"eccentricity":0.0004019,"inclination_deg":28.9953,"raan_deg":257.8596,"arg_perigee_deg":184.822,"mean_anomaly_deg":175.2336,"bstar":0.0001592,"rev_number":10421,"period_min":96.980501642488,"perigee_km":611.29503276881,"apogee_km":616.91539706116,"semimajor_km":6992.242214915,"source":"CELESTRAK","updated_at":"2026-05-25T13:38:01.828477Z"}}}